7 * 24
多渠道服务支持
STARLINK-33878是美国SpaceX公司于2025年5月7日发射的星链低轨通信卫星,隶属于Starlink星座组网项目,被部署至近地轨道,为全球提供高速互联网接入服务,支持地面终端通信、远程连接等应用,作为星链大规模卫星星座的一员,进一步扩充了星座规模,强化了星座覆盖能力与服务稳定性,星链星座通过大规模低轨卫星组网,为偏远地区、航海航空等场景提供通信支持,是当前全球低轨宽带互联网星座建设的重要组成部分。
美国
(US)
| 数据来源 | 国际轨道数据 |
| 星历时间: | 2026-04-29T10:59:05+0800 16小时前 查看轨道信息 |
| 半长轴: | 6861.158km |
| 偏心率: | 0.0001007 |
| 轨道倾角: | 42.996° |
| 近地点辐角 | 280.719° |
| 升交点赤经 | 153.184° |
| 平近点角 | 79.355° |
| 近地点: | 482.33km |
| 远地点: | 483.712km |
| 周期: | 94.266分钟 |
| 每日圈数: | 15.275895 |